Location: Bullenkuhlen
(53.7689°N, 9.7495°E)
Time: 07:49:42
(UTC+00:00)

STARLINK-1246 - Pass Details

Date: 09 April 2020
Orbit: 549 x 550 km, 53.0° (Epoch: 03 June)

Event Time Altitude Azimuth Distance (km) Brightness Sun altitude
Rises 18:51:05 0° 279° (W) 2,677 9.1 -6.3°
Reaches altitude 10° 18:53:19 10° 277° (W) 1,785 7.7 -6.6°
Maximum altitude 18:57:19 64° 196° (SSW) 591 3.7 -7.1°
Drops below altitude 10° 19:01:20 10° 115° (ESE) 1,782 5.5 -7.6°
Enters shadow 19:01:21 10° 115° (ESE) 1,790 5.5 -7.7°
